{"data":{"norad_id":67702,"epoch":"2026-05-25T00:36:44.520192Z","epoch_age_seconds":72197,"freshness":"FRESH","line1":"1 67702U 26025K   26145.02551528  .00016085  00000+0  49935-3 0  9995","line2":"2 67702  97.2835 256.6765 0000622  87.5026 272.6288 15.33455535 17713","mean_motion":15.33455535,"eccentricity":6.22e-5,"inclination_deg":97.2835,"raan_deg":256.6765,"arg_perigee_deg":87.5026,"mean_anomaly_deg":272.6288,"bstar":0.00049935,"rev_number":1771,"period_min":93.905559511382,"perigee_km":465.08615495237,"apogee_km":465.93750486681,"semimajor_km":6843.6488299096,"source":"CELESTRAK","updated_at":"2026-05-25T13:38:21.664543Z"}}